Weather History for KOEB - October, 2014

Change the Weather History Date:

Friday, October 24, 2014

  Actual Average (KJYM) Record (KJYM)
Temperature  
Mean Temperature 49 °F -  
Max Temperature 62 °F 58 °F 81 °F (1963)
Min Temperature 36 °F 37 °F 19 °F (1981)
Degree Days  
Heating Degree Days 16    
Moisture  
Dew Point 44 °F    
Average Humidity 85    
Maximum Humidity 98    
Minimum Humidity 65    
Precipitation  
Precipitation 0.00 in - - ()
Sea Level Pressure  
Sea Level Pressure 30.04 in    
Wind  
Wind Speed 2 mph (SW)    
Max Wind Speed 7 mph    
Max Gust Speed -    
Visibility 8 miles    
Events      
Averages and records for this station are not official NWS values.
T = Trace of Precipitation, MM = Missing Value Source: NWS Daily Summary

Daily Weather History Graph

Daily Weather History Graph

Search for Another Location

Airport or City:

Trip Planner

Search our weather history database for the weather conditions in past years. The results will help you decide how hot, cold, wet, or windy it might be!

Date:

Astronomy

Oct. 24, 2014 Rise Set
Actual Time 8:03 AM EDT 6:45 PM EDT
Civil Twilight 7:34 AM EDT 7:13 PM EDT
Nautical Twilight 7:01 AM EDT 7:46 PM EDT
Astronomical Twilight 6:29 AM EDT 8:18 PM EDT
Moon 8:41 AM EDT (10/24) 7:23 PM EDT (10/24)
Length of Visible Light 11h 39m
Length of Day
10h 41m
New Moon, 1% of the Moon is Illuminated
Oct 24
New Moon
Oct 30
First Quarter
Nov 6
Full
Nov 14
Last Quarter
Nov 22
New

Hourly Weather History & Observations

Time (EDT) Temp. Windchill Dew Point Humidity Pressure Visibility Wind Dir Wind Speed Gust Speed Precip Events Conditions
12:14 AM 37.4 °F - 36.5 °F 97% 30.11 in 5.0 mi North - - N/A   Clear
12:35 AM 36.7 °F - 35.8 °F 97% 30.10 in 5.0 mi Calm Calm - N/A   Clear
12:54 AM 36.5 °F - 35.6 °F 97% 30.09 in 5.0 mi Calm Calm - N/A   Clear
1:14 AM 36.7 °F - 35.8 °F 97% 30.09 in 5.0 mi Calm Calm - N/A   Clear
1:34 AM 36.3 °F - 35.4 °F 97% 30.09 in 4.0 mi Calm Calm - N/A   Clear
1:54 AM 36.9 °F - 36.0 °F 97% 30.08 in 4.0 mi Calm Calm - N/A   Scattered Clouds
2:14 AM 36.7 °F - 36.0 °F 97% 30.08 in 4.0 mi Calm Calm - N/A   Scattered Clouds
2:34 AM 37.8 °F - 36.3 °F 95% 30.08 in 7.0 mi Calm Calm - N/A   Overcast
2:54 AM 37.9 °F - 36.9 °F 96% 30.08 in 5.0 mi North - - N/A   Scattered Clouds
3:14 AM 37.6 °F - 36.7 °F 97% 30.08 in 4.0 mi Calm Calm - N/A   Scattered Clouds
3:34 AM 37.4 °F - 36.5 °F 97% 30.08 in 5.0 mi Calm Calm - N/A   Mostly Cloudy
3:54 AM 38.3 °F - 37.4 °F 97% 30.08 in 5.0 mi Calm Calm - N/A   Overcast
4:14 AM 40.3 °F - 39.4 °F 97% 30.08 in 4.0 mi Calm Calm - N/A   Overcast
4:34 AM 41.7 °F - 40.6 °F 96% 30.07 in 5.0 mi Calm Calm - N/A   Overcast
4:54 AM 42.8 °F - 41.9 °F 97% 30.07 in 5.0 mi Calm Calm - N/A   Overcast
5:14 AM 43.2 °F - 41.9 °F 95% 30.07 in 5.0 mi Calm Calm - N/A   Overcast
5:34 AM 43.7 °F - 41.9 °F 93% 30.07 in 7.0 mi Calm Calm - N/A   Overcast
5:55 AM 42.8 °F - 41.0 °F 93% 30.07 in 7.0 mi Calm Calm - N/A   Mostly Cloudy
6:14 AM 41.4 °F - 39.6 °F 93% 30.08 in 5.0 mi Calm Calm - N/A   Scattered Clouds
6:34 AM 42.1 °F - 41.0 °F 96% 30.08 in 7.0 mi Calm Calm - N/A   Mostly Cloudy
6:55 AM 43.2 °F - 40.3 °F 90% 30.08 in 10.0 mi Calm Calm - N/A   Mostly Cloudy
7:14 AM 46.2 °F 45.0 °F 42.4 °F 87% 30.08 in 10.0 mi SW 3.5 mph - N/A   Overcast
7:34 AM 46.6 °F - 42.3 °F 85% 30.07 in 10.0 mi SW 3.5 mph - N/A   Overcast
7:54 AM 47.5 °F - 42.8 °F 84% 30.06 in 10.0 mi SSW 5.8 mph - N/A   Overcast
8:14 AM 47.3 °F - 42.3 °F 83% 30.06 in 10.0 mi SSW 6.9 mph - N/A   Mostly Cloudy
8:34 AM 48.7 °F - 43.0 °F 80% 30.07 in 10.0 mi SW 6.9 mph - N/A   Overcast
8:54 AM 48.2 °F - 43.0 °F 82% 30.07 in 7.0 mi WSW 3.5 mph - N/A   Overcast
9:14 AM 48.6 °F - 43.9 °F 84% 30.08 in 7.0 mi SW 3.5 mph - N/A   Overcast
9:34 AM 49.6 °F - 43.7 °F 80% 30.07 in 10.0 mi Calm Calm - N/A   Overcast
9:54 AM 49.6 °F - 44.6 °F 83% 30.08 in 7.0 mi WSW 3.5 mph - N/A   Overcast
10:14 AM 50.0 °F - 44.4 °F 81% 30.08 in 7.0 mi Calm Calm - N/A   Overcast
10:34 AM 51.3 °F - 45.3 °F 80% 30.07 in 10.0 mi SSW 4.6 mph - N/A   Overcast
10:54 AM 52.5 °F - 45.9 °F 78% 30.08 in 10.0 mi SSW 3.5 mph - N/A   Overcast
11:14 AM 53.4 °F - 46.2 °F 77% 30.08 in 10.0 mi WSW 5.8 mph - N/A   Overcast
11:34 AM 53.8 °F - 46.8 °F 77% 30.08 in 10.0 mi West 4.6 mph - N/A   Overcast
11:54 AM 54.3 °F - 46.8 °F 76% 30.07 in 10.0 mi Calm Calm - N/A   Overcast
12:15 PM 55.0 °F - 47.3 °F 75% 30.08 in 10.0 mi West 4.6 mph - N/A   Overcast
12:34 PM 55.2 °F - 46.8 °F 73% 30.07 in 10.0 mi Calm Calm - N/A   Overcast
12:54 PM 56.3 °F - 47.7 °F 73% 30.06 in 10.0 mi Calm Calm - N/A   Overcast
1:14 PM 56.3 °F - 47.8 °F 73% 30.05 in 10.0 mi WSW 6.9 mph - N/A   Overcast
1:34 PM 56.5 °F - 47.5 °F 72% 30.04 in 10.0 mi SSW 6.9 mph - N/A   Overcast
1:55 PM 57.6 °F - 47.8 °F 70% 30.03 in 10.0 mi SW 6.9 mph - N/A   Overcast
2:14 PM 58.3 °F - 47.5 °F 67% 30.01 in 10.0 mi South 4.6 mph - N/A   Overcast
2:34 PM 59.7 °F - 48.9 °F 67% 30.01 in 10.0 mi South 4.6 mph - N/A   Mostly Cloudy
2:54 PM 60.1 °F - 48.9 °F 67% 29.99 in 10.0 mi SSW 4.6 mph - N/A   Scattered Clouds
3:14 PM 61.0 °F - 49.6 °F 66% 29.99 in 10.0 mi SW 6.9 mph - N/A   Clear
3:34 PM 61.0 °F - 50.5 °F 68% 30.00 in 10.0 mi WSW 5.8 mph - N/A   Mostly Cloudy
3:54 PM 61.2 °F - 50.5 °F 68% 30.00 in 10.0 mi WSW 5.8 mph - N/A   Overcast
4:14 PM 61.7 °F - 50.0 °F 65% 29.99 in 10.0 mi WSW 4.6 mph - N/A   Overcast
4:34 PM 61.3 °F - 49.8 °F 66% 29.99 in 10.0 mi SW 6.9 mph - N/A   Scattered Clouds
4:54 PM 60.8 °F - 50.0 °F 68% 29.98 in 10.0 mi SW 5.8 mph - N/A   Scattered Clouds
5:14 PM 62.2 °F - 50.9 °F 66% 29.98 in 10.0 mi SSW 4.6 mph - N/A   Scattered Clouds
5:34 PM 61.9 °F - 50.9 °F 67% 29.98 in 10.0 mi SW 6.9 mph - N/A   Scattered Clouds
5:54 PM 60.1 °F - 50.9 °F 72% 29.98 in 10.0 mi WSW 5.8 mph - N/A   Mostly Cloudy
6:14 PM 59.2 °F - 50.7 °F 74% 29.98 in 10.0 mi WSW 3.5 mph - N/A   Overcast
6:35 PM 57.7 °F - 49.5 °F 74% 29.98 in 10.0 mi Calm Calm - N/A   Mostly Cloudy
6:54 PM 57.4 °F - 49.5 °F 75% 29.98 in 10.0 mi Calm Calm - N/A   Scattered Clouds
7:14 PM 55.8 °F - 49.6 °F 80% 29.98 in 10.0 mi Calm Calm - N/A   Scattered Clouds
7:35 PM 53.4 °F - 49.5 °F 86% 29.99 in 10.0 mi Calm Calm - N/A   Scattered Clouds
7:54 PM 50.5 °F - 48.6 °F 93% 29.99 in 10.0 mi Calm Calm - N/A   Mostly Cloudy
8:14 PM 52.3 °F - 49.5 °F 90% 29.98 in 7.0 mi Calm Calm - N/A   Scattered Clouds
8:34 PM 48.6 °F - 46.8 °F 93% 29.99 in 7.0 mi Calm Calm - N/A   Mostly Cloudy
8:54 PM 49.3 °F - 47.7 °F 94% 29.98 in 7.0 mi Calm Calm - N/A   Scattered Clouds
9:14 PM 48.2 °F - 46.6 °F 94% 29.97 in 7.0 mi Calm Calm - N/A   Clear
9:34 PM 48.0 °F - 46.8 °F 95% 29.98 in 5.0 mi Calm Calm - N/A   Clear
9:54 PM 46.4 °F - 45.3 °F 96% 29.98 in 3.0 mi Calm Calm - N/A   Clear
10:14 PM 46.9 °F - 46.0 °F 97% 29.98 in 3.0 mi Calm Calm - N/A   Clear
10:34 PM 45.1 °F - 44.2 °F 97% 29.98 in 1.2 mi Calm Calm - N/A   Mist
10:54 PM 46.0 °F - 45.1 °F 97% 29.98 in 2.5 mi Calm Calm - N/A   Clear
11:14 PM 45.3 °F - 44.4 °F 97% 29.97 in 0.8 mi Calm Calm - N/A   Mist
11:34 PM 44.8 °F - 43.9 °F 97% 29.96 in 1.2 mi Calm Calm - N/A   Mist
11:54 PM 45.0 °F - 44.4 °F 98% 29.97 in 1.2 mi Calm Calm - N/A   Mist